This is the latest recevied weather packets stored in our database for station/object PP5KJ-13. If no packets are shown the sender has not sent any weather packets the latest 1 day(s).
| Time | Temp. | Humidity | Pressure | Rain* | Wind** | Luminosity | Snow |
|---|---|---|---|---|---|---|---|
| 1778093351 | 35.56° C | 100% | 1015 hPa | 0 mm | 3.58 m/s, 330° | - | - |
| 1778092751 | 36.11° C | 100% | 1016 hPa | 0 mm | 3.58 m/s, 330° | - | - |
| 1778092151 | 35.56° C | 100% | 1015 hPa | 0 mm | 3.58 m/s, 30° | - | - |
| 1778091551 | 36.67° C | 100% | 1015 hPa | 0 mm | 3.58 m/s, 30° | - | - |
| 1778090951 | 37.78° C | 100% | 1015 hPa | 0 mm | 4.92 m/s, 350° | - | - |
| 1778090351 | 38.89° C | 100% | 1015 hPa | 0 mm | 4.92 m/s, 350° | - | - |
| 1778089751 | 37.22° C | 100% | 1015 hPa | 0 mm | 4.92 m/s, 350° | - | - |
| 1778089151 | 36.11° C | 100% | 1016 hPa | 0 mm | 4.92 m/s, 350° | - | - |
| 1778088551 | 36.11° C | 100% | 1016 hPa | 0 mm | 4.92 m/s, 350° | - | - |
| 1778087951 | 36.11° C | 100% | 1016 hPa | 0 mm | 4.92 m/s, 350° | - | - |
| 1778076550 | 26.11° C | 100% | 1019 hPa | 0 mm | 5.81 m/s, 330° | - | - |
| 1778074750 | 25.56° C | 100% | 1020 hPa | 0 mm | 5.81 m/s, 330° | - | - |
| 1778072950 | 25° C | 100% | 1020 hPa | 0 mm | 5.81 m/s, 350° | - | - |
| 1778071750 | 25.56° C | 100% | 1020 hPa | 0 mm | 5.81 m/s, 350° | - | - |
| 1778071150 | 23.89° C | 100% | 1020 hPa | 0 mm | 5.81 m/s, 350° | - | - |
| 1778070550 | 24.44° C | 100% | 1020 hPa | 0 mm | 5.81 m/s, 350° | - | - |
| 1778069950 | 25° C | 100% | 1020 hPa | 0 mm | 5.81 m/s, 350° | - | - |
| 1778069350 | 25° C | 100% | 1020 hPa | 0 mm | 4.47 m/s, 320° | - | - |
| 1778068750 | 24.44° C | 100% | 1020 hPa | 0 mm | 4.47 m/s, 320° | - | - |
| 1778055549 | 21.67° C | 100% | 1018 hPa | 0 mm | 1.34 m/s, 350° | - | - |
| 1778054349 | 21.11° C | 100% | 1018 hPa | 0 mm | 1.34 m/s, 350° | - | - |
| 1778053749 | 21.67° C | 100% | 1018 hPa | 0 mm | 1.34 m/s, 350° | - | - |
| 1778052549 | 21.11° C | 100% | 1018 hPa | 0 mm | 1.34 m/s, 350° | - | - |
| 1778051949 | 21.67° C | 100% | 1018 hPa | 0 mm | 1.34 m/s, 350° | - | - |
| 1778051349 | 21.11° C | 100% | 1018 hPa | 0 mm | 1.34 m/s, 320° | - | - |
* Rain latest hour (hover to see other rain measurements)
** Current wind speed in m/s (hover to see current wind gust speed)